Jonesboro, AR

4:51 AM CDT on July 25, 2017 (GMT -0500)
Jonesboro Municipal

Weather History for KJBR - July, 2013

Change the Weather History Date:

Saturday, July 20, 2013

  Actual Average Record
Temperature  
Mean Temperature 85 °F 81 °F  
Max Temperature 95 °F 91 °F 108 °F (1901)
Min Temperature 75 °F 71 °F 56 °F (1910)
Degree Days  
Heating Degree Days 0 0  
Month to date heating degree days 0 0  
Since 1 June heating degree days 0 1  
Since 1 July heating degree days 0 0  
Cooling Degree Days 20 16  
Month to date cooling degree days 311 319  
Year to date cooling degree days 990 915  
Since 1 June cooling degree days 760 702  
Growing Degree Days 34 (Base 50)    
Moisture  
Dew Point 71 °F    
Average Humidity 68    
Maximum Humidity 87    
Minimum Humidity 49    
Precipitation  
Precipitation T in 0.10 in 1.64 in (1957)
Month to date precipitation 0.30 2.50  
Year to date precipitation 30.64 27.53  
Snow  
Snow 0.00 in - - ()
Month to date snowfall 0.0  
Since 1 June snowfall 0.0  
Snow Depth 0.00 in    
Sea Level Pressure  
Sea Level Pressure 29.91 in    
Wind  
Wind Speed 8 mph (SW)    
Max Wind Speed 16 mph    
Max Gust Speed 24 mph    
Visibility 10 miles    
Events Rain , Thunderstorm    
T = Trace of Precipitation, MM = Missing Value Source: NWS Daily Summary

Daily Weather History Graph

Daily Weather History Graph

Search for Another Location

Airport or City:

Trip Planner

Search our weather history database for the weather conditions in past years. The results will help you decide how hot, cold, wet, or windy it might be!

Date:

Astronomy

Jul. 20, 2013 Rise Set
Actual Time 6:01 AM CDT 8:16 PM CDT
Civil Twilight 5:32 AM CDT 8:45 PM CDT
Nautical Twilight 4:56 AM CDT 9:20 PM CDT
Astronomical Twilight 4:18 AM CDT 9:59 PM CDT
Moon 6:20 PM CDT (7/20) 3:41 AM CDT (7/20)
Length of Visible Light 15h 12m
Length of Day
14h 14m
Waxing Gibbous, 94% of the Moon is Illuminated
Jul 20
Waxing Gibbous
Jul 22
Full
Jul 29
Last Quarter
Aug 6
New
Aug 14
First Quarter

Hourly Weather History & Observations

Time (CDT) Temp. Heat Index Dew Point Humidity Pressure Visibility Wind Dir Wind Speed Gust Speed Precip Events Conditions
12:53 AM 75.9 °F - 71.1 °F 85% 29.94 in 10.0 mi Calm Calm - N/A   Clear
1:53 AM 77.0 °F - 72.0 °F 84% 29.94 in 10.0 mi South 4.6 mph - N/A   Clear
2:53 AM 75.9 °F - 72.0 °F 87% 29.93 in 10.0 mi South 3.5 mph - N/A   Clear
3:53 AM 75.0 °F - 72.0 °F 90% 29.92 in 10.0 mi South 4.6 mph - N/A   Clear
4:53 AM 75.9 °F - 72.0 °F 87% 29.93 in 10.0 mi SW 5.8 mph - N/A   Clear
5:53 AM 75.0 °F - 72.0 °F 90% 29.95 in 10.0 mi SW 6.9 mph - N/A   Scattered Clouds
6:53 AM 75.9 °F - 72.0 °F 87% 29.94 in 10.0 mi SW 8.1 mph - N/A   Clear
7:53 AM 78.1 °F - 71.1 °F 79% 29.94 in 10.0 mi SW 5.8 mph - N/A   Clear
8:53 AM 82.9 °F 88.0 °F 72.0 °F 69% 29.94 in 10.0 mi SW 8.1 mph - N/A   Clear
9:53 AM 86.0 °F 92.2 °F 72.0 °F 63% 29.95 in 10.0 mi WSW 9.2 mph - N/A   Clear
10:53 AM 88.0 °F 93.8 °F 71.1 °F 57% 29.94 in 10.0 mi SW 13.8 mph - N/A   Partly Cloudy
11:53 AM 90.0 °F 96.4 °F 71.1 °F 54% 29.92 in 10.0 mi SW 10.4 mph - N/A   Clear
12:53 PM 91.0 °F 97.6 °F 71.1 °F 52% 29.92 in 10.0 mi South 9.2 mph - N/A   Partly Cloudy
1:53 PM 91.9 °F 98.4 °F 71.1 °F 50% 29.90 in 10.0 mi Variable 6.9 mph - N/A   Clear
2:53 PM 90.0 °F 96.9 °F 72.0 °F 55% 29.87 in 10.0 mi South 11.5 mph - N/A   Partly Cloudy
3:53 PM 93.0 °F 100.1 °F 71.1 °F 49% 29.84 in 10.0 mi SW 11.5 mph 19.6 mph N/A   Partly Cloudy
4:53 PM 93.9 °F 100.8 °F 71.1 °F 47% 29.83 in 10.0 mi SSW 12.7 mph - N/A   Partly Cloudy
5:53 PM 91.9 °F 99.5 °F 72.0 °F 52% 29.85 in 10.0 mi SSW 11.5 mph - N/A   Clear
6:53 PM 89.1 °F 96.0 °F 72.0 °F 57% 29.86 in 10.0 mi SSW 10.4 mph - N/A   Clear
7:14 PM 86.0 °F 91.8 °F 71.6 °F 62% 29.89 in 10.0 mi NNW 12.7 mph 23.0 mph N/A Thunderstorm Mostly Cloudy
7:37 PM 80.6 °F 83.2 °F 68.0 °F 65% 29.91 in 10.0 mi NNW 9.2 mph 24.2 mph N/A Thunderstorm Mostly Cloudy
7:53 PM 77.0 °F - 70.0 °F 79% 29.90 in 10.0 mi North 9.2 mph 18.4 mph 0.00 in Rain Light Rain
8:07 PM 77.0 °F - 71.6 °F 83% 29.90 in 10.0 mi NNE 10.4 mph - 0.00 in Rain , Thunderstorm Light Rain
8:35 PM 75.2 °F - 69.8 °F 83% 29.90 in 10.0 mi NE 5.8 mph - 0.00 in   Partly Cloudy
8:53 PM 75.9 °F - 71.1 °F 85% 29.89 in 10.0 mi ENE 5.8 mph - 0.00 in   Partly Cloudy
9:53 PM 75.9 °F - 71.1 °F 85% 29.90 in 10.0 mi Calm Calm - N/A   Clear
10:53 PM 75.9 °F - 71.1 °F 85% 29.91 in 10.0 mi WSW 3.5 mph - N/A   Clear
11:38 PM 77.0 °F - 71.6 °F 83% 29.94 in 10.0 mi WSW 9.2 mph - N/A Thunderstorm Scattered Clouds
11:53 PM 77.0 °F - 72.0 °F 84% 29.92 in 10.0 mi WNW 5.8 mph - N/A Thunderstorm Mostly Cloudy